Etusivu
METAR-TAF:

METAR-TAF

Lentoasemat :

Palestine Municipal Airport

Palestine, Texas, Yhdysvallat

Leveyspiiri: 31-46-46N, Pituuspiiri: 095-42-22W, korkeus merenpinnasta: 129 m

Tämänhetkinen sää

Tämä raportti tehtiin 36 minuuttia sitten, kello 16.15 UTC
Tuuli 3 kn idästä
Lämpötila 22°C
Kosteus 78%
Ilmanpaine 1018 hPa
Näkyvyys: 16.1 km
selkeää

METAR: KPSN 061615Z AUTO 10003KT 10SM CLR 22/18 A3005 RMK AO2 T02220185

Aika: 11:51 (16:51 UTC)


TAF: puuttuu

Säähavainnot ja -ennusteet yli 4000 lentoasemalta (METAR- ja TAF-raportit).

Käytössä olevat sääasemat on merkitty karttaan keltaisilla ja punaisilla pisteillä.

Aseta hiiri pisteen päälle nähdäksesi sääaseman nimen.

Klikkaa sitten nähdäksesi säähavainnot ja -ennusteet.

Kartan vaihtaminen: klikkaa mustalla rastilla varustettuja vihreitä pisteitä, niin voit zoomata sisään; viivalla varustettua vihreää pistettä, niin voit zoomata ulos tai vihreitä nuolia, niin pääset viereisille kartoille.


METAR-TAF: